Rock River, Yukon Territory

10:43 PM PDT on April 24, 2017 (GMT -0700)
Rock River

Weather History for CWRR - October, 2013

Change the Weather History Date:

Thursday, October 17, 2013

  Actual Average Record
Temperature  
Mean Temperature 40 °F -  
Max Temperature 47 °F - - ()
Min Temperature 33 °F - - ()
Degree Days  
Heating Degree Days 25    
Moisture  
Dew Point 32 °F    
Average Humidity 73    
Maximum Humidity 95    
Minimum Humidity 49    
Precipitation  
Precipitation 0.00 in - - ()
Sea Level Pressure  
Sea Level Pressure 30.00 in    
Wind  
Wind Speed 4 mph ()    
Max Wind Speed 9 mph    
Max Gust Speed -    
T = Trace of Precipitation, MM = Missing Value Source: Averaged Metar Reports

Daily Weather History Graph

Daily Weather History Graph

Search for Another Location

Airport or City:

Trip Planner

Search our weather history database for the weather conditions in past years. The results will help you decide how hot, cold, wet, or windy it might be!

Date:

Astronomy

Oct. 17, 2013 Rise Set
Actual Time 9:13 AM PDT 6:25 PM PDT
Civil Twilight 8:18 AM PDT 7:20 PM PDT
Nautical Twilight 7:16 AM PDT 8:22 PM PDT
Astronomical Twilight 6:13 AM PDT 9:24 PM PDT
Moon 5:55 PM PDT (10/17) 7:31 AM PDT (10/17)
Length of Visible Light 11h 02m
Length of Day
9h 12m
Waxing Gibbous, 98% of the Moon is Illuminated
Oct 17
Waxing Gibbous
Oct 18
Full
Oct 26
Last Quarter
Nov 3
New
Nov 9
First Quarter

Hourly Weather History & Observations

Time (PDT) Temp. Windchill Dew Point Humidity Pressure Visibility Wind Dir Wind Speed Gust Speed Precip Events Conditions
12:00 AM 34.7 °F 29.6 °F 33.4 °F 95% 30.11 in - East 5.8 mph - N/A   Unknown
1:00 AM 34.2 °F 29.0 °F 32.9 °F 95% 30.12 in - SE 5.8 mph - N/A   Unknown
2:00 AM 35.2 °F 28.8 °F 33.3 °F 92% 30.12 in - SSE 8.1 mph - N/A   Unknown
3:00 AM 37.0 °F 32.4 °F 32.7 °F 84% 30.11 in - SSE 5.8 mph - N/A   Unknown
4:00 AM 37.2 °F 32.6 °F 32.0 °F 81% 30.10 in - SE 5.8 mph - N/A   Unknown
5:00 AM 37 °F - 32 °F 74% 30.09 in - SSE 3.5 mph - -  
5:00 AM 37.4 °F 34.9 °F 31.6 °F 80% 30.09 in - SSE 3.5 mph - N/A   Unknown
6:00 AM 35.8 °F 31.9 °F 30.4 °F 81% 30.08 in - East 4.6 mph - N/A   Unknown
7:00 AM 36.0 °F 29.6 °F 30.6 °F 81% 30.08 in - SE 8.1 mph - N/A   Unknown
8:00 AM 36.3 °F 30.8 °F 30.2 °F 78% 30.07 in - ESE 6.9 mph - N/A   Unknown
9:00 AM 36.7 °F 32.9 °F 30.7 °F 79% 30.06 in - East 4.6 mph - N/A   Unknown
10:00 AM 38.7 °F - 30.6 °F 73% 30.05 in - East 2.3 mph - N/A   Unknown
11:00 AM 38 °F - 31 °F 66% 30.04 in - East 2.3 mph - -  
11:00 AM 38.3 °F - 30.7 °F 74% 30.04 in - ENE 2.3 mph - N/A   Unknown
12:00 PM 39.6 °F - 30.6 °F 70% 30.03 in - East 1.2 mph - N/A   Unknown
1:00 PM 40.5 °F - 30.2 °F 67% 30.03 in - ESE 2.3 mph - N/A   Unknown
2:00 PM 44.6 °F 41.4 °F 31.6 °F 60% 29.99 in - SSW 5.8 mph - N/A   Unknown
3:00 PM 45.5 °F 41.8 °F 31.5 °F 58% 29.96 in - SSW 6.9 mph - N/A   Unknown
4:00 PM 45.9 °F - 30.2 °F 54% 29.95 in - Calm Calm - N/A   Unknown
5:00 PM 45 °F - 32 °F 49% 29.94 in - SSW 2.3 mph - -  
5:00 PM 45.3 °F - 32.0 °F 60% 29.93 in - SSW 1.2 mph - N/A   Unknown
6:00 PM 40.1 °F 36.1 °F 32.4 °F 74% 29.92 in - ESE 5.8 mph - N/A   Unknown
7:00 PM 40.3 °F 37.1 °F 32.4 °F 73% 29.89 in - East 4.6 mph - N/A   Unknown
8:00 PM 41.5 °F 39.6 °F 33.1 °F 72% 29.85 in - East 3.5 mph - N/A   Unknown
9:00 PM 41.0 °F 35.2 °F 33.3 °F 74% 29.84 in - SE 9.2 mph - N/A   Unknown
10:00 PM 41.0 °F 38.0 °F 33.3 °F 74% 29.81 in - SE 4.6 mph - N/A   Unknown
11:00 PM 43 °F - 34 °F 60% 29.78 in - SE 3.5 mph - -  
11:00 PM 43.2 °F 41.5 °F 33.6 °F 69% 29.79 in - ESE 3.5 mph - N/A   Unknown